AirNav   Everest Fuels
 
 678 users online  

2T1 Muleshoe Municipal Airport
Muleshoe, Texas, USA

GOING TO MULESHOE?


FAA INFORMATION EFFECTIVE 21 MAY 2020

Location

FAA Identifier: 2T1
Lat/Long: 34-11-06.4910N 102-38-27.9530W
34-11.108183N 102-38.465883W
34.1851364,-102.6410981
(estimated)
Elevation: 3779.3 ft. / 1151.9 m (surveyed)
Variation: 09E (1990)
From city: 4 miles SE of MULESHOE, TX
Time zone: UTC -5 (UTC -6 during Standard Time)
Zip code: 79347

Airport Operations

Airport use: Open to the public
Activation date: 06/1989
Control tower: no
ARTCC: FORT WORTH CENTER
FSS: FORT WORTH FLIGHT SERVICE STATION
NOTAMs facility: FTW (NOTAM-D service available)
Attendance: UNATNDD
Wind indicator: lighted
Segmented circle: yes
Lights: ACTVT MIRL AND PAPI RY 07/25 - 122.8.
Beacon: white-green (lighted land airport)
Operates sunset to sunrise.

Airport Communications

CTAF: 122.9
  • APCH/DEP SVC PRVDD BY FORT WORTH ARTCC ON FREQS 126.45/316.1 (PLAINVIEW RCAG).

Nearby radio navigation aids

VOR radial/distance  VOR name  Freq  Var
TXOr141/21.0TEXICO VORTAC112.2011E

Airport Services

Fuel available: 100LL
FOR EMERGENCY FUEL CALL 806-272-4569.
Parking: tiedowns

Runway Information

Runway 7/25

Dimensions: 5100 x 60 ft. / 1554 x 18 m
Surface: asphalt, in good condition
Weight bearing capacity: 
Single wheel: 12.5
Runway edge lights: medium intensity
RUNWAY 7  RUNWAY 25
Latitude: 34-11.017567N34-11.198633N
Longitude: 102-38.959550W102-37.971650W
Elevation: 3779.3 ft.3767.3 ft.
Traffic pattern: leftleft
Runway heading: 069 magnetic, 078 true249 magnetic, 258 true
Markings: nonprecision, in good conditionnonprecision, in good condition
Visual slope indicator: 2-light PAPI on left (3.00 degrees glide path)2-light PAPI on left (3.00 degrees glide path)
Touchdown point: yes, no lightsyes, no lights
Obstructions: 50 ft. pole, 1410 ft. from runway, 24:1 slope to clear
2-3 FT BRUSH 126-200 FT FM THR; ACRS APCH.
3 ft. brush, 200 ft. from runway
2-3 FT BRUSH 83-200 FT FM THR; ACRS APCH.

Airport Ownership and Management from official FAA records

Ownership: Publicly-owned
Owner: CITY OF MULESHOE
215 S FIRST ST
MULESHOE, TX 79347
Phone 806-272-4528
Manager: ZANEA CARPENTER, CITY SECRETARY
215 S FIRST ST
MULESHOE, TX 79347
Phone 806-272-4528

Airport Operational Statistics

Aircraft based on the field: 10
Single engine airplanes: 8
Multi engine airplanes: 2
    
Aircraft operations: avg 57/week *
67% local general aviation
33% transient general aviation
* for 12-month period ending 31 January 2018

Additional Remarks

DEER ON & INVOF ARPT.
FOR CD CTC FORT WORTH ARTCC AT 817-858-7584.

Instrument Procedures

NOTE: All procedures below are presented as PDF files. If you need a reader for these files, you should download the free Adobe Reader.

NOT FOR NAVIGATION. Please procure official charts for flight.
FAA instrument procedures published for use from 21 May 2020 at 0901Z to 18 June 2020 at 0900Z.

 
IAPs - Instrument Approach Procedures
RNAV (GPS)-B   download (156KB)
VOR/DME-A   download (168KB)

Other nearby airports with instrument procedures:

KLIU - Littlefield Taylor Brown Municipal Airport (20 nm SE)
KCVN - Clovis Municipal Airport (26 nm NW)
KCVS - Cannon Air Force Base (36 nm W)
KPRZ - Portales Municipal Airport (38 nm W)
KLLN - Levelland Municipal Airport (40 nm S)
 
Loc | Ops | Rwys | IFR | FBO | Links
Com | Nav | Svcs | Stats | Notes

AirBoss

 
Area around 2T1 (Muleshoe Municipal Airport)
 
Road maps at: MapQuest Bing Google
 
Aerial photo
No photo
 
Sectional chart

 
Airport distance calculator
Flying to Muleshoe Municipal Airport? Find the distance to fly.

From to 2T1

Sunrise and sunset
Times for 03-Jun-2020
 Local
(UTC-5)
 Zulu
(UTC)
Morning civil twilight06:1111:11
Sunrise06:4011:40
Sunset20:5801:58
Evening civil twilight21:2702:27

Current date and time
Zulu (UTC)  03-Jun-2020 11:48:46
Local (UTC-5)  03-Jun-2020 06:48:46
 
METAR
KCVN 
25nm NW 
031056Z AUTO 21005KT 10SM CLR 18/13 A3009 RMK AO2 SLP144 T01780128
KCVS 
35nm W 
031058Z AUTO 19004KT 10SM OVC120 19/12 A3009 RMK AO2 SLP127 T01860121 $
KHRX 
43nm N 
031135Z AUTO 26004KT 7SM CLR 18/14 A3008 RMK AO2 T01800135
KPVW 
46nm E 
031135Z AUTO 20003KT 10SM CLR 17/14 A3006 RMK AO2 T01660135
TAF
KCVS 
35nm W 
031010Z 0310/0416 VRB06KT 9999 FEW200 QNH3009INS BECMG 0313/0314 24008KT 9999 SKC QNH3001INS BECMG 0320/0321 17010G15KT 9999 VCTS BKN100CB QNH2997INS BECMG 0323/0324 16008KT 9999 NSW FEW100 QNH2996INS TX34/0322Z TN17/0312Z
NOTAMs
Click for the latest NOTAMs
NOTAMs are issued by the DoD/FAA and will open in a separate window not controlled by AirNav.

 

 
 

FBO, Fuel Providers, and Aircraft Ground Support

  
 Business Name 
 
 Contact 
 
 Services / Description 
 
Fuel Prices
 
Comments
  
City of Muleshoe 806-272-4528
[web site]
[email]
Aviation fuel

More info about City of Muleshoe
Phillips 66
100LL
SS $3.51 
 Updated 20-May-2020
 
   1 read write
SS=Self service
Update Fuel Prices
 

Would you like to see your business listed on this page?

 If your business provides an interesting product or service to pilots, flight crews, aircraft, or users of the Muleshoe Municipal Airport, you should consider listing it here.  To start the listing process, click on the button below
 
Add a business
 

Other Pages about Muleshoe Municipal Airport

www.city-of-muleshoe.com/...
 
Update a link
 
Copyright © AirNav, LLC. All rights reserved. Privacy Policy  Contact